User: anonymous   Login
Location: Fontevrault
(47.1823°N, 0.0493°E)
Time: 20:37:03
(UTC+00:00)
Language:

CZ-2D DEB - Orbit

View from above orbital plane
View from above orbital plane
View from above satellite
View from above satellite

Ground track
Ground track

The orbit data is extracted from the following two-line orbital elements,

1 44605U 16068E   22016.30287171  .00000284  00000-0  22260-3 0  9999
2 44605  98.3586 215.9205 0235305  22.1024 339.0082 13.86510910257444
Epoch (UTC): 16 January 2022 07:16:08
Eccentricity: 0.0235305
inclination: 98.3586°
perigee height: 768 km
apogee height: 1113 km
right ascension of ascending node: 215.9205°
argument of perigee: 22.1024°
revolutions per day: 13.86510910
mean anomaly at epoch: 339.0082°
orbit number at epoch: 25744

The dashed part of the orbit path shows where the satellite is in the earth's shadow,  

DLR